Terug naar catalogus

CZ-4 DEB

ActiefSSO
NORAD 20849·DEBRIS·🇨🇳 China

Gelanceerd Sep 3, 1990 vanaf Taiyuan Satellite Launch Center

Loading…

Volgende Passages (komende 24 uur)

TLE

VersSource: Space-Track

Epoch: Sep 14, 2026, 09:06 UTC

1 20849U 90081M   26257.37974176  .00000522  00000-0  26836-3 0  9994
2 20849  98.6867 235.7628 0037920 200.2083 159.7594 14.19154859848623

Volg CZ-4 DEB in realtime met AllMySat

Download on the App Store